Find Starlink 36097

NORAD ID: 67091 Int'l Des: 2025-298 Owner: SPXS Country: US Constellation: starlink operational
LEOCIRCULAR

Live Position

Loading 3D Globe...

About Starlink 36097

Description loading...

Upcoming Passes

Passes for default location (London). Set your location on the main map for personalized predictions.

Altitude History

Loading altitude history...

Two-Line Element Set

1 67091U 25298S 26106.72360527 .00043065 00000-0 14210-2 0 9994
2 67091 69.9963 273.0017 0002524 226.0025 134.0943 15.31205890 19050
Epoch: Apr 16, 2026 • Age: 21 hours

Current Status

Altitude 483.3 km
Velocity 7.63 km/s
Sub-Earth Point 60.35°N, 106.13°W
Launch Date Dec 14, 2025
Age 0.3 years
Type internet

Technical Details

Classification Payload
Mass 575.00 kg
Dry Mass 530.00 kg
Total Mass 575.00 kg
Length 0.30 m
Diameter 4.10 m
Span 29.00 m
Shape Box + pan
Manufacturer SPXS
Bus Type Starlink V2MO
Phase Status In Orbit
Owner/State SPXS/US

Most Searched